User: anonymous   Login
Location: Newark
(60.6561°N, 46.5772°E)
Time: 23:31:38
(UTC+00:00)
Language:

SR - Orbit

View from above orbital plane
View from above orbital plane
View from above satellite
View from above satellite

Ground track
Ground track

The orbit data is extracted from the following two-line orbital elements,

1    46U 60007B   19295.20664939  .00000013  00000-0  25583-4 0  9999
2    46  66.6907 332.9724 0216016 308.2047  49.9779 14.49251102104432
Epoch (UTC): 22 October 2019 04:57:34
Eccentricity: 0.0216016
inclination: 66.6907°
perigee height: 574 km
apogee height: 881 km
right ascension of ascending node: 332.9724°
argument of perigee: 308.2047°
revolutions per day: 14.49251102
mean anomaly at epoch: 49.9779°
orbit number at epoch: 10443

The dashed part of the orbit path shows where the satellite is in the earth's shadow,  

DLR